Change the Weather History Date:

Sunday, November 11, 2012

  Actual Average Record
Temperature  
Mean Temperature 38 °F -  
Max Temperature 50 °F 61 °F 77 °F (1996)
Min Temperature 25 °F 39 °F 25 °F (2012)
Degree Days  
Heating Degree Days 28    
Moisture  
Dew Point 14 °F    
Average Humidity 37    
Maximum Humidity 69    
Minimum Humidity 8    
Precipitation  
Precipitation 0.00 in - - ()
Sea Level Pressure  
Sea Level Pressure 30.30 in    
Wind  
Wind Speed 8 mph (NE)    
Max Wind Speed 15 mph    
Max Gust Speed 20 mph    
Visibility 10 miles    
Events      
Averages and records for this station are not official NWS values.
T = Trace of Precipitation, MM = Missing Value Source: NWS Daily Summary

Daily Weather History Graph

Daily Weather History Graph

Search for Another Location

Airport or City:

Trip Planner

Search our weather history database for the weather conditions in past years. The results will help you decide how hot, cold, wet, or windy it might be!

Date:

Astronomy

Nov. 11, 2012 Rise Set
Actual Time 6:18 AM PST 4:37 PM PST
Civil Twilight 5:51 AM PST 5:04 PM PST
Nautical Twilight 5:19 AM PST 5:36 PM PST
Astronomical Twilight 4:49 AM PST 6:06 PM PST
Moon 3:40 AM PST (11/11) 3:01 PM PST (11/11)
Length of Visible Light 11h 13m
Length of Day
10h 19m
Waning Crescent, 6% of the Moon is Illuminated
Nov 11
Waning Crescent
Nov 13
New
Nov 20
First Quarter
Nov 28
Full
Dec 6
Last Quarter

Hourly Weather History & Observations

Time (PST) Temp. Windchill Dew Point Humidity Pressure Visibility Wind Dir Wind Speed Gust Speed Precip Events Conditions
12:52 AM 35.1 °F 27.4 °F 17.1 °F 48% 30.13 in 10.0 mi NNE 10.4 mph - N/A   Clear
1:52 AM 33.1 °F 26.1 °F 18.0 °F 54% 30.15 in 10.0 mi NNE 8.1 mph - N/A   Clear
2:52 AM 30.9 °F 23.5 °F 18.0 °F 59% 30.17 in 10.0 mi NE 8.1 mph - N/A   Clear
3:52 AM 30.0 °F 21.7 °F 18.0 °F 61% 30.19 in 10.0 mi NE 9.2 mph - N/A   Clear
4:52 AM 27.0 °F - 18.0 °F 69% 30.24 in 10.0 mi Calm Calm - N/A   Clear
5:52 AM 26.1 °F 21.9 °F 17.1 °F 69% 30.27 in 10.0 mi East 3.5 mph - N/A   Clear
6:52 AM 30.0 °F 25.2 °F 16.0 °F 56% 30.28 in 10.0 mi NE 4.6 mph - N/A   Clear
7:52 AM 37.9 °F 32.1 °F 12.9 °F 36% 30.31 in 10.0 mi ENE 8.1 mph - N/A   Clear
8:52 AM 41.0 °F 35.2 °F 12.9 °F 32% 30.32 in 10.0 mi ENE 9.2 mph - N/A   Clear
9:52 AM 43.0 °F 37.2 °F 14.0 °F 31% 30.34 in 10.0 mi NNE 10.4 mph - N/A   Clear
10:52 AM 45.0 °F 39.3 °F 14.0 °F 29% 30.34 in 10.0 mi NNE 11.5 mph 19.6 mph N/A   Clear
11:52 AM 46.9 °F - 12.9 °F 25% 30.31 in 10.0 mi NNE 13.8 mph - N/A   Clear
12:52 PM 48.0 °F - 10.0 °F 22% 30.30 in 10.0 mi NE 15.0 mph 18.4 mph N/A   Clear
1:52 PM 48.9 °F - 7.0 °F 18% 30.30 in 10.0 mi NE 10.4 mph 18.4 mph N/A   Clear
2:52 PM 48.9 °F - 6.1 °F 18% 30.30 in 10.0 mi NNE 11.5 mph - N/A   Clear
3:52 PM 48.9 °F - 7.0 °F 18% 30.30 in 10.0 mi NNE 10.4 mph - N/A   Clear
4:52 PM 45.0 °F 41.2 °F 7.0 °F 21% 30.33 in 10.0 mi East 6.9 mph - N/A   Clear
5:52 PM 43.0 °F 39.5 °F 12.0 °F 28% 30.36 in 10.0 mi ESE 5.8 mph - N/A   Clear
6:52 PM 39.0 °F 34.0 °F 16.0 °F 39% 30.36 in 10.0 mi NE 6.9 mph - N/A   Clear
7:52 PM 39.0 °F 32.8 °F 15.1 °F 38% 30.36 in 10.0 mi NE 9.2 mph - N/A   Clear
8:52 PM 37.0 °F 32.4 °F 14.0 °F 39% 30.38 in 10.0 mi ENE 5.8 mph - N/A   Clear
9:52 PM 36.0 °F - 15.1 °F 43% 30.39 in 10.0 mi Calm Calm - N/A   Clear
10:52 PM 35.1 °F - 14.0 °F 42% 30.39 in 10.0 mi Calm Calm - N/A   Clear
11:52 PM 32.0 °F 28.7 °F 15.1 °F 50% 30.40 in 10.0 mi East 3.5 mph - N/A   Clear